This is the latest recevied weather packets stored in our database for station/object K9YK-13. If no packets are shown the sender has not sent any weather packets the latest 10 day(s).
| Time | Temp. | Humidity | Pressure | Rain* | Wind** | Luminosity | Snow |
|---|---|---|---|---|---|---|---|
| 1778052669 | 7.78° C | 96% | 0 hPa | 0 mm | - | - | - |
| 1778052369 | 7.78° C | 94% | 0 hPa | 0 mm | - | - | - |
| 1778052069 | 8.33° C | 96% | 0 hPa | 0 mm | - | - | - |
| 1778051769 | 8.33° C | 96% | 0 hPa | 0 mm | - | - | - |
| 1778051469 | 7.78° C | 96% | 0 hPa | 0 mm | - | - | - |
| 1778051169 | 7.78° C | 95% | 0 hPa | 0 mm | - | - | - |
| 1778050869 | 7.78° C | 92% | 0 hPa | 0 mm | - | - | - |
| 1778050569 | 7.22° C | 93% | 0 hPa | 0 mm | - | - | - |
| 1778050269 | 7.78° C | 92% | 0 hPa | 0 mm | - | - | - |
| 1778049970 | 8.89° C | 91% | 0 hPa | 0 mm | - | - | - |
| 1778049369 | 8.89° C | 92% | 0 hPa | 0 mm | - | - | - |
| 1778049069 | 8.89° C | 91% | 0 hPa | 0 mm | - | - | - |
| 1778048769 | 8.33° C | 90% | 0 hPa | 0 mm | - | - | - |
| 1778048470 | 8.33° C | 89% | 0 hPa | 0 mm | - | - | - |
| 1778048169 | 8.89° C | 86% | 0 hPa | 0 mm | - | - | - |
| 1778047870 | 8.89° C | 91% | 0 hPa | 0 mm | - | - | - |
| 1778047569 | 8.33° C | 91% | 0 hPa | 0 mm | - | - | - |
| 1778047269 | 7.78° C | 91% | 0 hPa | 0 mm | - | - | - |
| 1778046969 | 8.33° C | 92% | 0 hPa | 0 mm | - | - | - |
| 1778046669 | 8.89° C | 89% | 0 hPa | 0 mm | - | - | - |
| 1778046369 | 8.89° C | 85% | 0 hPa | 0 mm | - | - | - |
| 1778046069 | 8.89° C | 85% | 0 hPa | 0 mm | - | - | - |
| 1778045769 | 8.33° C | 85% | 0 hPa | 0 mm | - | - | - |
| 1778045469 | 7.78° C | 85% | 0 hPa | 0 mm | - | - | - |
| 1778045169 | 8.89° C | 84% | 0 hPa | 0 mm | - | - | - |
* Rain latest hour (hover to see other rain measurements)
** Current wind speed in m/s (hover to see current wind gust speed)